Flag for U.S.A. Weather past 2 weeks in Syracuse, New York, U.S.A.

Now
41 °F

Broken clouds.


Feels Like: 34 °F
Forecast: 26 / 39 °F
Wind: 12 mph from North

Location: Syracuse Hancock International Airport

Current Time: Mar 31, 2015 at 5:18:08 PM

Latest Report: Mar 31, 2015 at 4:54 PM


Visibility: 10 mi

Pressure: 29.79 "Hg

Humidity: 49%

Dew point: 23 °F

Location of SyracuseLocation

Historic Weather in Syracuse — Graph

°F

Syracuse temperature yesterday

Maximum temperature yesterday: 43 °F (at 1:54 PM)
Minimum temperature yesterday: 35 °F (at 3:54 AM)
Average temperature yesterday: 39 °F

Past Weeks' High & Low Weather Summary

 TemperatureHumidityPressure
High49 °F (Mar 16, 3:54 PM)100% (Mar 17, 6:03 AM)30.41 "Hg (Mar 17, 6:03 AM)
Low9 °F (Mar 24, 5:54 AM)24% (Mar 29, 5:54 PM)29.59 "Hg (Mar 17, 6:03 AM)
Average29 °F66%30.05 "Hg
* Reported Mar 16 3:54 PM — Mar 31 3:54 PM, Syracuse, Weather by CustomWeather, © 2015

Note: Actual official high and low records may vary slightly from our data, if they occured in-between our weather recording intervals... More about our weather records

Advertising

Syracuse weather history for previous 24 hours

 ConditionsComfort  
Time TempWeatherWind HumidityBarometerVisibility
3:54 PM
Tue, Mar 31
40 °FPartly sunny.8 mph51%29.78 "Hg10 mi
2:54 PM40 °FBroken clouds.5 mph49%29.78 "Hg10 mi
1:54 PM39 °FMostly cloudy.7 mph57%29.78 "Hg10 mi
12:54 PM38 °FMostly cloudy.6 mph58%29.78 "Hg10 mi
11:54 AM36 °FPartly sunny.5 mph64%29.80 "Hg10 mi
10:54 AM36 °FBroken clouds.5 mph64%29.83 "Hg10 mi
9:54 AM35 °FBroken clouds.8 mph72%29.84 "Hg10 mi
9:01 AM33 °FBroken clouds.7 mph75%29.85 "Hg10 mi
7:54 AM31 °FPartly sunny.10 mph79%29.85 "Hg10 mi
6:54 AM29 °FPassing clouds.9 mph82%29.86 "Hg10 mi
5:54 AM29 °FClear.7 mph82%29.85 "Hg10 mi
4:54 AM31 °FPassing clouds.12 mph79%29.84 "Hg10 mi
3:54 AM34 °FOvercast.13 mph73%29.83 "Hg10 mi
2:54 AM34 °FMostly cloudy.12 mph76%29.84 "Hg10 mi
1:54 AM35 °FOvercast.12 mph72%29.84 "Hg10 mi
12:54 AM35 °FMostly cloudy.12 mph75%29.84 "Hg10 mi
11:54 PM
Mon, Mar 30
36 °FPassing clouds.9 mph73%29.84 "Hg10 mi
10:54 PM36 °FPassing clouds.13 mph79%29.83 "Hg10 mi
9:54 PM37 °FMostly cloudy.14 mph82%29.82 "Hg10 mi
8:54 PM37 °FMostly cloudy.15 mph82%29.81 "Hg10 mi
7:54 PM38 °FPartly sunny.13 mph79%29.79 "Hg10 mi
6:54 PM39 °FPartly sunny.13 mph73%29.78 "Hg10 mi
5:54 PM40 °FPartly sunny.15 mph70%29.76 "Hg10 mi
Weather by CustomWeather, © 2015

See weather overviewHow to use our weather pages